Hamilton, OH

4:39 PM EDT on June 25, 2017 (GMT -0400)
Butler County Regional

Weather History for KHAO - July, 2013

Change the Weather History Date:

Sunday, July 7, 2013

  Actual Average (KLUK) Record (KLUK)
Temperature  
Mean Temperature 73 °F -  
Max Temperature 82 °F 86 °F 104 °F (2012)
Min Temperature 64 °F 64 °F 52 °F (1972)
Cooling Degree Days 8    
Growing Degree Days 23 (Base 50)    
Moisture  
Dew Point 66 °F    
Average Humidity 85    
Maximum Humidity 100    
Minimum Humidity 58    
Precipitation  
Precipitation 0.01 in - - ()
Sea Level Pressure  
Sea Level Pressure 30.10 in    
Wind  
Wind Speed 1 mph (SW)    
Max Wind Speed 7 mph    
Max Gust Speed -    
Visibility 8 miles    
Events Rain    
Averages and records for this station are not official NWS values.
T = Trace of Precipitation, MM = Missing Value Source: NWS Daily Summary

Daily Weather History Graph

Daily Weather History Graph

Search for Another Location

Airport or City:

Trip Planner

Search our weather history database for the weather conditions in past years. The results will help you decide how hot, cold, wet, or windy it might be!

Date:

Astronomy

Jul. 07, 2013 Rise Set
Actual Time 6:18 AM EDT 9:07 PM EDT
Civil Twilight 5:46 AM EDT 9:39 PM EDT
Nautical Twilight 5:06 AM EDT 10:19 PM EDT
Astronomical Twilight 4:20 AM EDT 11:05 PM EDT
Moon 5:53 AM EDT (7/7) 8:31 PM EDT (7/7)
Length of Visible Light 15h 52m
Length of Day
14h 48m
Waning Crescent, 0% of the Moon is Illuminated
Jul 7
Waning Crescent
Jul 8
New
Jul 15
First Quarter
Jul 22
Full
Jul 29
Last Quarter

Hourly Weather History & Observations

Time (EDT) Temp. Heat Index Dew Point Humidity Pressure Visibility Wind Dir Wind Speed Gust Speed Precip Events Conditions
12:53 AM 68.0 °F - 66.0 °F 93% 30.11 in 9.0 mi Calm Calm - N/A   Partly Cloudy
1:53 AM 66.0 °F - 64.9 °F 96% 30.11 in 7.0 mi Calm Calm - N/A   Clear
2:43 AM 66.2 °F - 64.4 °F 94% 30.11 in 6.0 mi Calm Calm - N/A   Mostly Cloudy
2:53 AM 66.9 °F - 64.9 °F 93% 30.10 in 6.0 mi Calm Calm - N/A   Overcast
3:16 AM 66.2 °F - 64.4 °F 94% 30.10 in 8.0 mi Calm Calm - N/A   Scattered Clouds
3:53 AM 66.0 °F - 64.9 °F 96% 30.09 in 8.0 mi Calm Calm - N/A   Clear
4:53 AM 66.9 °F - 64.9 °F 93% 30.09 in 9.0 mi Calm Calm - N/A   Mostly Cloudy
5:09 AM 66.2 °F - 64.4 °F 94% 30.09 in 8.0 mi Calm Calm - N/A   Scattered Clouds
5:53 AM 64.9 °F - 64.0 °F 97% 30.09 in 5.0 mi Calm Calm - N/A   Partly Cloudy
6:36 AM 64.4 °F - 64.4 °F 100% 30.11 in 5.0 mi Calm Calm - N/A   Mostly Cloudy
6:53 AM 66.0 °F - 64.0 °F 93% 30.10 in 4.0 mi Calm Calm - N/A   Overcast
7:53 AM 66.9 °F - 66.0 °F 97% 30.11 in 8.0 mi Calm Calm - N/A   Overcast
8:21 AM 68.0 °F - 66.2 °F 94% 30.13 in 8.0 mi Calm Calm - N/A   Scattered Clouds
8:38 AM 68.0 °F - 66.2 °F 94% 30.13 in 8.0 mi Calm Calm - N/A   Mostly Cloudy
8:53 AM 69.1 °F - 66.9 °F 93% 30.13 in 10.0 mi SSW 3.5 mph - N/A   Overcast
9:53 AM 70.0 °F - 66.9 °F 90% 30.14 in 10.0 mi Calm Calm - 0.00 in Rain Light Rain
10:04 AM 69.8 °F - 66.2 °F 88% 30.15 in 10.0 mi Calm Calm - 0.00 in Rain Light Rain
10:16 AM 69.8 °F - 66.2 °F 88% 30.14 in 10.0 mi Calm Calm - 0.01 in Rain Light Rain
10:25 AM 69.8 °F - 66.2 °F 88% 30.14 in 10.0 mi Calm Calm - 0.01 in   Overcast
10:40 AM 71.6 °F - 66.2 °F 83% 30.14 in 10.0 mi Calm Calm - 0.01 in   Overcast
10:53 AM 72.0 °F - 66.9 °F 84% 30.14 in 10.0 mi SW 4.6 mph - 0.01 in   Overcast
11:44 AM 75.2 °F - 68.0 °F 78% 30.14 in 10.0 mi Variable 3.5 mph - N/A   Overcast
11:53 AM 73.9 °F - 66.9 °F 79% 30.12 in 10.0 mi West 4.6 mph - N/A   Overcast
12:53 PM 75.0 °F - 66.9 °F 76% 30.12 in 10.0 mi Calm Calm - N/A   Mostly Cloudy
1:53 PM 80.1 °F 82.7 °F 68.0 °F 67% 30.11 in 10.0 mi Variable 4.6 mph - N/A   Partly Cloudy
2:53 PM 79.0 °F - 66.9 °F 66% 30.09 in 10.0 mi SW 5.8 mph - N/A   Mostly Cloudy
3:53 PM 82.9 °F 85.8 °F 68.0 °F 60% 30.08 in 10.0 mi Variable 4.6 mph - N/A   Mostly Cloudy
4:53 PM 82.0 °F 84.1 °F 66.0 °F 58% 30.06 in 10.0 mi Variable 3.5 mph - N/A   Partly Cloudy
5:53 PM 82.0 °F 84.5 °F 66.9 °F 60% 30.04 in 10.0 mi SW 3.5 mph - N/A   Clear
6:53 PM 81.0 °F 83.8 °F 68.0 °F 65% 30.04 in 10.0 mi Variable 4.6 mph - N/A   Scattered Clouds
7:53 PM 80.1 °F 82.1 °F 66.0 °F 62% 30.06 in 10.0 mi WSW 6.9 mph - N/A   Clear
8:53 PM 75.0 °F - 68.0 °F 79% 30.06 in 10.0 mi Calm Calm - N/A   Clear
9:53 PM 71.1 °F - 68.0 °F 90% 30.08 in 5.0 mi Calm Calm - N/A   Clear
10:53 PM 69.1 °F - 66.9 °F 93% 30.10 in 7.0 mi Calm Calm - N/A   Clear
11:53 PM 68.0 °F - 66.0 °F 93% 30.10 in 8.0 mi Calm Calm - N/A   Clear